Simultaneous Nadir Overpasses (SNOs) Predictions

Prediction of SNOs near US between AQUA and NPP Satellite Orbit:

Table of predicted SNOs near US for the next 10.0 days since TLE Epoch: 6/8/2017
Index Date (AQUA) Time (AQUA) AQUA Lat,Lon Date (NPP) Time (NPP) NPP Lat,Lon Distance(km) Time Diff (sec)
1 06/09/2017 10:12:01 26.78,-125.00 06/09/2017 10:05:33 25.97,-125.85 123.38 388
2 06/12/2017 07:18:41 49.92, -76.00 06/12/2017 07:19:58 50.36, -78.09 156.37 77
3 06/12/2017 08:57:34 49.93,-100.72 06/12/2017 09:01:26 50.47,-103.41 200.82 232
4 06/14/2017 18:16:49 49.97, -80.18 06/14/2017 18:10:14 49.69, -81.67 110.84 395
5 06/14/2017 19:55:42 49.97,-104.90 06/14/2017 19:51:42 49.58,-106.99 156.07 240
6 06/14/2017 21:30:52 36.67,-125.00 06/14/2017 21:29:21 36.20,-127.49 229.11 91
7 06/17/2017 09:23:59 21.44,-113.92 06/17/2017 09:16:03 21.51,-114.29 38.84 476




NCC Satellite Simultaneous Nadir Overpasses (SNOs) Prediction Service
